Location: Unspecified
(0.0000°N, 0.0000°E)
Time: 11:03:38
(UTC+00:00)

STARLINK-32467 - Visible Passes

Search period start: 09 December 2025 00:00
Search period end: 19 December 2025 00:00
Orbit: 474 x 476 km, 53.2° (Epoch: 08 December)

Date Brightness Start Highest point End Pass type
(mag) Time Alt. Az. Time Alt. Az. Time Alt. Az.
10 Dec 3.2 05:13:29 10° SW 05:17:11 76° NW 05:20:51 10° NNE visible
11 Dec 3.3 04:43:59 10° SSW 04:47:41 83° ESE 04:51:22 10° NE visible
12 Dec 3.7 04:15:45 20° SSW 04:18:11 63° ESE 04:21:50 10° NE visible
